Вернуться в каталог

STARLINK-3736

АктивенСвязьVLEO
NORAD 52113·PAYLOAD·🇺🇸 United States

Запущен Mar 19, 2022 с Cape Canaveral Space Force Station

Loading…

Ближайшие Пролёты (ближайшие 24 часа)

TLE

СвежийSource: CelesTrak SupGP

Эпоха: Sep 14, 2026, 21:05 UTC

1 52113C 22029AB  26257.87895833  .00749660  00000+0  22519-1 0  2578
2 52113  53.1590 295.6464 0001062  85.8063 155.6100 15.33495029    12

Отслеживайте STARLINK-3736 в реальном времени с AllMySat

Download on the App Store